Regional Weather Roundup
Issued by NWS

Home | Current Version | Previous Version | Graphics & Text | Print | Product List | Glossary On
Versions: 1 2 3 4 5 6 7 8 9 10 11 12 13 14 15 16 17 18 19 20 21 22 23 24 25 26 27 28 29 30 31 32 33 34 35 36 37 38 39 40 41 42 43 44 45 46 47 48 49 50
000
ASUS43 KLMK 250510
RWRKY
KENTUCKY REGIONAL WEATHER ROUNDUP
NATIONAL WEATHER SERVICE LOUISVILLE KY
100 AM EDT SAT OCT 25 2014

NOTE "FAIR" INDICATES FEW OR NO CLOUDS BELOW 12,000 FEET
WITH NO SIGNIFICANT WEATHER AND/OR OBSTRUCTIONS TO VISIBILITY.

KYZ001>023-026-027-061>063-070>075-250600-
WESTERN AND SOUTH CENTRAL KENTUCKY

CITY           SKY/WX    TMP DP  RH WIND       PRES   REMARKS
PADUCAH        CLEAR     54  51  90 SW5       30.06S
HENDERSON      PTCLDY   N/A N/A N/A S3        30.05S
OWENSBORO      CLEAR     51  49  93 CALM      30.06S
HOPKINSVILLE   CLEAR     50  50 100 SW2       30.08S
BOWLING GREEN  CLEAR     47  44  90 CALM      30.08F
GLASGOW        CLEAR     45  45 100 CALM      30.08S FOG
$$

KYZ024-025-028>034-038-045-046-053-250600-
NORTH CENTRAL KENTUCKY

CITY           SKY/WX    TMP DP  RH WIND       PRES   REMARKS
LOUISVILLE/SDF PTCLDY    51  47  86 SE10      30.06S
LOUISVILLE/LOU CLEAR     49  46  90 CALM      30.06F
FORT KNOX      CLEAR     47  46  95 CALM      30.05F
$$

KYZ035>037-039>044-047>052-055>060-089>105-250600-
NORTHEAST KENTUCKY

CITY           SKY/WX    TMP DP  RH WIND       PRES   REMARKS
LEXINGTON      CLEAR     48  41  76 S3        30.07S
COVINGTON      MOCLDY    51  42  71 CALM      30.05S
FRANKFORT      CLEAR     44  41  89 CALM      30.05F
$$

KYZ054-064>069-076>088-106>120-250600-
SOUTHEAST KENTUCKY

CITY           SKY/WX    TMP DP  RH WIND       PRES   REMARKS
JACKSON        CLEAR     48  41  76 CALM      30.08R
LONDON         CLEAR     43  40  89 CALM      30.09R
SOMERSET       CLEAR     43  43 100 CALM      30.10S
MIDDLESBORO    CLEAR     40  40  98 CALM      30.11S
MONTICELLO     CLEAR     40  39  96 CALM      30.10F FOG
$$




USA.gov is the U.S. government's official web portal to all federal, state and local government web resources and services.